Torna al catalogo

STARLINK-3520

AttivoComunicazioniVLEO
NORAD 51741·PAYLOAD·🇺🇸 United States

Lanciato Feb 21, 2022 da Cape Canaveral Space Force Station

Loading…

Prossimi Passaggi (prossime 24 ore)

TLE

AggiornatoSource: CelesTrak SupGP

Epoca: Sep 14, 2026, 20:48 UTC

1 51741C 22016AD  26257.86715278 -.00017857  00000+0 -57421-3 0  2573
2 51741  53.1573 177.0558 0001319  99.8785 282.0381 15.31711610    18

Traccia STARLINK-3520 in tempo reale con AllMySat

Download on the App Store